RH
74 77 77 77 81 88 89 88 77 60 53 49 46 52 62 64 66 68 69 68 64 66 70 64 54 56 56 49 49 50 43 41 47 52 65 78 86 85 83 86 81 73 70 77 76 71 73 70 74 76 76 80 84 84 82 80 76 71 68 67 65 66 66 65 65 63 63 62 62 63 61 54 47 52 58 54 56 62 66 68 71 71 71 70 69 68 68 69 71 72 71 70 67 67 66 65 67
72 72 77 82 85 87 83 81 68 55 53 49 46 54 65 64 66 66 65 68 66 69 73 62 54 62 62 53 51 51 50 52 58 65 80 84 80 85 86 84 82 78 73 78 76 73 75 69 73 75 74 78 81 82 81 82 79 73 68 65 65 67 67 64 63 62 63 62 63 62 58 53 49 52 53 53 61 68 70 71 72 72 73 71 71 72 74 76 78 79 79 79 76 74 70 68 68
71 78 85 87 87 88 80 75 64 53 51 48 50 58 65 66 68 68 68 71 70 72 71 61 57 63 57 49 51 53 56 59 63 69 83 84 78 84 87 86 83 79 76 77 76 75 75 69 73 75 75 77 79 81 82 83 78 71 67 65 66 69 67 62 61 61 63 61 60 60 56 53 52 54 56 61 66 67 70 72 74 76 77 78 77 77 79 80 81 82 83 83 84 83 78 75 70
74 85 90 93 87 82 72 65 59 50 49 48 55 62 63 67 69 73 77 75 72 72 69 64 61 67 59 48 53 56 60 62 65 72 80 80 77 84 88 88 83 79 77 77 80 79 75 70 71 74 75 76 77 79 81 81 75 70 69 67 66 67 65 60 59 62 63 62 60 56 53 55 59 63 65 66 66 69 74 77 79 82 83 82 80 79 78 78 80 82 83 85 87 88 86 84 78
81 87 88 95 81 71 65 58 52 49 55 52 58 66 63 66 69 73 78 78 74 70 68 63 59 66 64 60 61 60 64 66 68 72 74 77 80 87 88 87 85 79 76 77 82 82 77 72 70 71 75 76 75 76 77 77 74 71 69 67 64 62 61 59 61 65 65 63 57 51 54 61 64 65 64 65 67 73 79 81 81 82 82 80 79 78 77 77 78 81 82 83 86 88 87 87 87
88 91 92 95 83 73 65 57 52 53 64 59 60 67 64 66 70 73 78 80 76 74 70 62 59 58 60 69 71 69 74 73 70 71 71 79 85 87 85 86 86 81 79 78 81 82 77 74 74 73 74 74 74 74 73 74 72 69 68 66 63 58 57 59 61 62 61 59 57 56 60 63 62 61 61 65 71 77 81 81 80 80 79 78 78 77 76 77 79 83 83 83 85 83 81 83 89
86 88 91 86 79 74 58 51 53 56 67 64 63 67 66 69 73 75 77 78 76 77 72 66 62 52 60 68 69 77 83 81 74 73 75 81 85 86 85 86 87 82 80 78 80 84 77 73 77 78 75 72 72 74 73 72 70 69 70 69 65 62 63 64 60 58 59 61 63 64 63 60 58 60 64 71 77 80 80 79 79 77 75 73 74 77 75 77 82 86 84 83 82 79 78 82 89
84 84 84 73 60 57 49 49 54 56 65 66 65 68 71 76 78 76 74 77 77 76 73 72 62 53 69 68 67 84 88 84 80 79 80 82 85 85 85 87 87 82 77 76 79 83 75 71 77 80 78 73 73 74 72 69 68 69 68 69 68 68 71 70 66 65 66 68 66 63 59 58 61 67 72 76 79 78 76 76 76 74 72 71 74 79 78 79 85 84 78 78 81 80 81 83 87
87 82 75 67 51 47 49 50 54 58 65 67 68 73 77 80 81 77 74 78 78 75 73 71 61 59 71 71 76 88 89 87 84 85 82 82 86 86 86 86 84 79 73 74 79 79 73 71 75 77 77 76 76 75 72 68 68 70 69 70 71 72 73 71 71 69 68 66 62 58 57 64 69 73 77 77 76 75 76 74 74 75 74 75 78 80 81 80 79 76 74 76 79 82 85 87 88
84 76 69 63 48 45 49 50 54 59 67 70 71 76 79 83 83 79 75 77 78 74 73 69 62 63 67 72 83 88 90 90 84 84 83 83 86 85 85 85 83 77 70 72 76 78 74 71 73 73 75 76 75 77 75 73 74 74 74 75 76 75 75 75 73 70 68 67 64 64 67 74 75 75 77 75 74 73 72 72 74 77 76 76 78 80 82 81 77 75 78 77 78 83 87 89 88
71 66 67 59 47 46 51 52 56 60 68 72 72 77 84 85 83 81 80 80 79 72 73 70 63 65 68 74 84 90 92 89 81 80 82 84 85 85 85 85 85 76 71 70 69 76 75 71 74 73 75 76 73 76 76 75 76 75 75 77 79 78 77 77 76 74 73 73 71 72 74 75 73 73 75 72 70 70 70 71 73 75 74 75 78 80 82 82 81 81 82 80 81 85 84 84 86
62 52 54 49 47 49 52 54 61 64 68 74 74 81 89 84 78 81 82 77 75 71 73 73 67 67 65 71 85 91 90 88 81 78 82 83 83 85 88 86 83 79 75 69 65 72 74 72 75 73 73 74 72 73 74 75 76 76 76 76 78 77 76 76 75 74 74 73 73 74 73 72 72 73 73 70 69 70 72 74 73 72 75 79 81 82 83 84 82 81 82 84 85 85 83 83 85
56 49 49 45 46 46 49 56 65 66 65 72 75 83 89 83 78 80 78 73 71 70 73 75 73 70 67 75 89 91 88 87 81 79 81 80 82 85 89 85 81 81 76 71 69 70 73 73 75 73 69 69 69 68 69 74 76 76 75 75 74 71 70 73 73 72 72 72 72 72 72 73 74 73 71 69 68 68 70 71 71 73 78 82 83 82 84 85 81 79 83 87 89 87 86 86 85
55 53 55 46 40 42 48 56 63 62 65 72 76 84 89 89 90 88 78 72 71 73 80 81 76 71 69 74 83 87 89 87 80 80 79 78 82 85 90 86 81 81 76 75 74 69 71 73 75 74 68 65 68 67 65 69 75 78 77 75 72 69 70 73 74 74 74 73 73 72 74 75 73 71 68 64 62 61 63 68 72 76 81 81 80 81 84 85 81 80 83 88 88 85 83 84 85
59 56 56 43 37 42 48 56 60 59 66 72 76 82 88 93 96 95 86 76 75 80 83 79 78 72 65 64 70 79 88 86 79 79 78 81 84 84 88 87 84 83 77 77 75 69 67 71 74 72 66 63 68 72 71 71 74 79 80 78 74 72 74 75 76 77 77 73 72 75 77 75 71 68 62 58 57 59 65 72 76 74 77 79 80 82 82 83 81 78 82 86 82 79 79 79 83
62 59 51 38 38 43 47 55 58 60 66 68 76 80 82 91 92 92 93 86 80 82 81 74 78 77 67 64 66 77 87 85 80 79 78 81 82 80 83 83 86 82 71 70 72 65 62 68 70 67 61 59 70 76 76 74 74 78 79 77 73 71 72 73 75 77 78 74 72 76 76 70 70 67 58 58 61 66 70 69 69 68 72 79 82 81 78 82 85 81 84 86 80 77 77 76 80
61 58 42 33 37 42 49 56 55 60 66 66 74 76 76 88 91 88 89 88 80 77 80 76 79 79 74 74 73 81 88 84 83 83 79 80 79 78 79 79 83 80 70 66 63 55 54 64 65 61 57 62 75 77 76 77 75 75 75 74 70 66 65 66 71 76 78 76 75 73 68 68 73 69 59 59 61 64 65 61 63 66 72 79 81 80 79 84 87 86 87 88 84 81 78 76 77
55 47 33 33 37 41 49 54 53 57 63 64 70 73 73 82 89 88 84 82 77 74 79 78 81 84 81 81 81 86 89 84 85 83 79 80 78 76 76 76 78 79 78 73 66 57 52 60 65 59 56 67 76 72 73 77 75 75 73 74 71 64 64 68 71 77 79 77 78 70 67 71 74 70 62 59 59 61 62 64 70 70 74 78 78 80 82 84 83 83 83 84 85 85 84 81 80
48 38 31 35 38 41 46 49 53 55 59 62 68 73 73 76 81 86 80 74 72 70 74 75 78 85 84 82 85 91 90 86 84 82 81 78 74 71 71 74 75 76 80 77 77 73 57 57 67 65 62 69 75 70 66 65 65 68 73 76 74 69 71 75 74 77 76 75 78 71 72 74 65 63 61 59 60 63 67 68 71 70 72 73 72 77 80 80 79 79 78 79 81 84 90 94 94
41 36 32 34 34 39 45 49 51 54 59 60 65 71 71 75 79 83 79 72 69 66 68 69 71 79 84 82 85 89 87 85 84 85 84 78 72 66 65 67 71 75 76 75 80 82 68 61 69 70 61 65 79 74 62 62 60 58 69 77 75 74 78 79 76 77 75 76 76 67 74 73 60 61 59 60 66 68 72 71 69 69 69 72 69 70 75 76 78 79 76 78 79 82 90 96 99
34 32 32 32 31 35 44 50 51 54 58 58 62 67 67 74 78 80 80 72 66 65 68 69 67 74 84 85 84 85 82 81 83 86 85 79 74 67 62 61 65 69 72 74 78 82 77 68 72 71 55 61 80 71 62 68 64 59 68 73 69 71 80 83 80 79 78 76 71 68 76 71 60 68 64 63 71 69 71 74 78 76 72 79 74 67 72 75 79 81 76 77 78 82 87 88 95
31 28 30 32 30 32 43 50 53 56 57 57 61 63 65 71 73 73 76 71 64 66 70 70 72 78 85 85 84 86 83 80 83 87 85 80 75 68 62 60 62 64 67 69 72 75 75 72 75 76 60 60 72 68 68 69 62 65 76 75 70 72 78 83 83 81 77 69 68 73 76 71 66 76 75 68 69 69 73 80 85 84 80 88 82 68 71 74 78 80 77 81 81 85 92 93 97
28 25 29 33 31 32 42 50 55 59 54 55 59 60 63 66 67 68 70 70 62 63 67 68 72 76 80 84 85 87 85 85 85 83 81 78 75 71 66 62 59 58 62 63 65 68 70 71 72 75 73 67 68 66 67 70 63 67 80 76 71 80 82 80 82 84 79 64 66 70 68 78 83 83 84 75 71 75 81 82 84 87 88 94 84 64 64 69 74 78 79 85 84 83 91 98 100
27 24 29 34 33 34 42 50 57 60 54 56 60 59 60 61 64 65 65 64 58 59 64 67 69 63 65 73 79 85 86 85 83 76 74 78 77 74 69 65 59 55 59 59 60 63 64 69 66 69 76 70 72 74 71 77 74 73 82 75 68 70 71 78 84 84 81 65 57 54 57 79 87 83 86 81 76 79 81 81 83 85 85 90 83 67 61 62 69 75 76 79 80 80 86 96 98
23 21 29 35 36 38 44 51 58 61 61 63 61 57 58 62 67 64 61 60 57 59 63 68 70 62 59 61 67 81 85 83 81 74 73 82 79 66 55 57 62 56 55 56 57 59 59 65 66 67 74 69 76 84 82 85 81 80 82 77 76 61 53 76 85 78 74 63 54 48 53 74 84 85 84 78 77 79 80 80 82 81 81 83 81 75 65 58 62 68 72 74 77 81 85 90 89
18 21 30 35 37 41 46 50 53 56 61 63 57 55 57 62 65 56 52 56 56 60 61 65 71 69 66 63 60 67 77 81 79 72 72 80 72 54 43 47 62 60 55 56 56 59 59 62 66 68 74 74 80 85 85 90 86 83 81 75 74 56 49 64 65 67 72 69 66 57 56 68 79 84 81 78 78 79 80 81 82 80 80 81 79 77 67 59 64 68 71 75 81 89 87 86 86
21 27 31 37 39 43 45 46 49 53 59 59 52 53 55 59 59 47 45 51 53 59 60 60 66 71 71 69 64 62 68 73 73 72 71 74 64 48 43 45 58 64 61 60 57 59 60 61 65 68 72 68 73 85 84 80 75 71 70 67 63 53 49 47 45 58 71 78 78 62 57 63 71 80 79 78 78 79 80 81 84 81 80 82 79 75 65 62 69 71 71 73 81 87 83 83 82
29 32 34 39 39 41 41 42 47 53 59 58 51 53 56 56 52 43 43 46 49 57 61 58 60 64 67 69 71 71 69 67 71 74 67 67 70 62 56 54 57 62 64 64 63 64 61 60 64 64 71 63 56 76 81 69 64 59 56 56 59 54 42 39 49 61 66 73 73 61 61 63 65 75 78 77 79 81 80 81 84 82 81 77 70 67 63 65 77 80 74 74 79 78 82 89 81
32 33 34 39 39 40 39 39 44 48 55 57 53 54 54 53 46 39 42 45 47 53 60 60 60 63 64 67 72 75 75 75 77 78 69 69 78 74 68 64 58 61 65 63 63 68 65 64 65 55 60 60 47 63 80 75 72 67 62 59 58 49 38 41 51 63 66 65 61 56 59 60 60 70 78 80 78 76 78 81 82 82 82 69 62 65 62 66 87 93 81 82 89 84 93 101 90
30 28 30 32 35 40 37 39 43 44 53 57 55 49 45 46 41 38 44 46 46 52 58 59 60 63 66 68 71 73 75 80 79 77 75 73 74 70 65 63 58 61 67 65 63 68 69 66 65 55 53 54 46 53 66 71 75 74 68 64 57 43 40 48 51 59 63 59 58 54 53 58 62 68 75 75 68 67 76 80 81 84 79 64 63 70 63 62 80 92 88 90 97 95 99 97 88
24 23 28 20 22 35 35 37 40 45 56 56 53 45 39 43 40 42 48 46 44 48 53 56 59 62 66 68 71 75 76 77 77 76 74 67 66 66 63 62 60 59 63 67 68 70 73 68 62 61 60 58 56 55 53 55 64 71 66 58 52 42 40 49 55 63 67 66 69 62 54 57 64 66 66 66 61 63 72 75 79 80 71 62 65 69 64 62 72 85 90 90 90 88 87 79 73
17 18 20 12 14 27 32 36 36 42 51 50 48 41 37 44 42 43 48 46 45 44 47 53 57 60 65 68 70 75 76 73 72 75 72 63 61 66 66 63 61 59 58 62 65 64 69 68 61 62 63 62 63 62 57 52 52 61 64 51 41 38 40 45 49 56 63 70 77 75 63 57 65 67 61 63 61 63 71 74 80 76 64 63 68 69 64 66 74 80 82 79 73 70 69 67 66
15 12 12 10 10 16 26 36 34 35 42 43 45 39 35 42 43 44 47 46 46 46 48 51 54 56 61 69 69 70 73 73 74 76 75 69 63 64 65 63 60 59 59 58 61 61 63 64 60 60 59 60 63 64 62 56 49 52 58 52 44 38 37 41 44 46 51 57 63 67 63 58 64 67 65 67 64 65 69 72 82 77 64 65 70 69 65 70 78 79 78 75 64 59 64 67 66
12 10 9 10 10 10 19 30 34 34 38 40 42 39 34 36 40 43 46 47 46 47 48 49 53 54 55 63 65 65 70 72 75 76 77 75 67 61 61 61 59 58 58 59 62 63 63 61 58 58 58 59 60 63 63 59 53 49 50 52 50 45 40 40 41 43 45 47 50 53 56 60 65 66 68 70 68 67 65 72 84 76 64 68 72 69 68 72 76 78 80 75 63 59 66 67 60
12 11 10 9 10 10 12 21 31 34 36 38 40 40 35 33 37 41 45 47 46 46 47 48 51 53 53 57 59 61 66 69 71 74 76 77 71 64 61 60 58 59 60 61 63 64 64 62 59 59 60 61 60 60 60 60 58 55 53 52 49 48 45 44 44 45 48 53 56 54 54 60 64 66 68 71 71 68 70 84 91 77 67 72 71 69 74 77 76 79 80 74 66 62 65 63 57
11 11 10 10 9 13 16 19 26 30 33 35 35 36 33 33 35 38 42 45 47 48 49 49 49 53 53 52 55 56 61 64 66 71 76 77 75 69 64 61 58 58 59 62 64 64 63 62 61 62 61 62 61 59 59 59 60 59 59 59 56 53 50 49 49 47 52 63 65 59 58 60 64 68 70 73 74 68 71 80 80 74 72 72 70 68 74 79 79 81 77 71 68 65 64 62 58
11 9 9 9 8 14 21 21 22 26 30 30 30 31 29 33 35 35 39 43 46 49 51 51 49 52 52 49 51 53 58 61 63 71 78 79 78 72 67 65 61 58 59 61 63 62 62 62 61 62 62 62 61 60 60 60 60 61 61 61 62 64 65 62 60 58 59 66 64 59 60 59 61 71 75 75 74 70 68 67 69 74 73 72 72 69 71 78 82 78 71 70 69 69 69 63 60
10 8 8 8 7 15 24 24 22 26 30 28 29 31 27 30 33 35 40 42 43 45 48 49 47 48 51 51 51 52 57 63 70 78 83 83 82 76 71 70 67 63 61 61 62 63 63 63 63 62 63 63 62 61 60 60 59 61 62 66 71 76 79 77 76 77 73 71 67 63 64 62 63 72 76 74 73 71 70 69 72 74 71 71 70 67 73 82 82 75 69 70 70 76 79 68 61
9 8 8 8 7 15 26 27 24 27 30 28 29 29 25 27 31 34 38 38 38 42 45 46 45 45 47 50 53 54 58 67 77 82 85 87 84 79 76 78 77 73 72 68 65 67 67 67 66 65 65 63 63 63 62 62 62 61 61 65 70 71 72 72 73 76 75 76 74 68 66 66 67 71 74 74 73 72 73 75 76 71 69 70 67 68 79 85 81 73 68 69 72 81 87 78 66
8 8 7 7 8 11 18 25 28 27 27 27 27 24 23 29 35 37 37 38 42 45 48 49 50 49 46 47 49 53 56 65 75 79 84 88 84 81 80 81 82 81 80 76 72 75 73 70 69 68 69 69 69 69 68 68 66 65 63 62 63 63 64 64 64 66 68 72 74 74 75 71 66 68 72 74 75 75 76 79 76 69 69 70 69 74 83 86 79 71 70 71 70 74 81 84 75
7 8 7 7 9 10 13 21 29 28 27 26 22 21 26 28 33 38 38 43 48 47 49 52 55 56 53 52 52 54 56 61 70 76 83 87 82 79 78 78 79 79 80 78 79 81 76 72 71 72 74 74 75 76 76 76 73 70 69 67 66 66 65 65 67 70 74 80 83 87 90 83 72 71 74 75 77 77 77 78 74 70 73 76 78 82 84 84 78 72 74 72 69 74 77 78 75
7 8 8 7 10 13 14 20 24 25 29 27 19 21 28 24 26 33 36 41 44 46 47 48 53 59 60 59 59 58 58 61 68 72 81 87 81 75 72 72 74 73 74 76 78 82 80 77 76 76 78 79 80 81 81 81 80 79 77 75 74 72 73 74 76 79 84 90 91 90 92 89 85 83 81 81 82 80 78 78 76 74 76 80 84 86 84 80 76 76 78 77 77 80 78 72 67
8 8 8 8 12 14 15 16 16 15 21 24 18 18 24 23 24 29 33 36 39 44 45 43 48 57 59 60 59 58 58 63 69 70 78 88 87 82 75 73 76 76 76 78 80 82 83 82 79 80 83 83 83 82 84 85 85 84 81 80 78 77 80 81 81 83 85 89 91 91 93 93 92 89 85 86 87 88 86 81 78 77 78 84 87 86 83 79 76 79 82 82 81 78 76 72 64
8 9 9 11 14 15 14 12 11 10 14 20 18 15 20 22 23 27 31 33 34 38 39 39 44 50 54 55 54 56 56 61 70 73 78 86 90 90 85 82 85 82 78 80 82 84 86 86 84 85 87 87 86 83 83 83 82 82 81 81 81 83 89 90 90 91 90 92 93 94 96 95 93 92 90 89 88 92 93 84 78 78 81 88 88 83 80 76 77 83 82 78 77 76 74 73 66
8 8 9 12 14 14 13 10 11 11 11 17 17 15 20 21 20 26 29 27 29 32 33 35 39 44 49 50 51 55 56 60 68 74 82 88 90 91 89 88 89 86 83 84 84 83 82 82 83 85 89 90 86 81 80 81 83 83 84 84 85 90 96 96 96 96 95 97 96 97 98 96 96 96 95 94 94 97 94 84 78 81 86 89 84 78 77 77 81 85 81 76 76 74 71 68 67
8 8 9 11 12 13 12 9 10 11 12 16 15 14 19 20 18 21 23 23 25 28 29 35 41 43 47 49 51 55 59 63 70 78 86 89 89 89 87 89 92 91 92 91 91 87 78 78 82 84 86 86 85 84 85 86 85 82 84 89 93 96 97 96 95 95 95 94 96 99 100 99 98 98 100 99 98 97 87 83 86 85 86 83 75 73 76 77 79 77 76 76 74 71 69 70 70
8 8 8 9 10 10 10 8 9 12 13 15 14 13 16 20 19 18 22 24 23 25 28 34 41 44 48 50 50 54 60 67 74 78 79 79 84 87 86 90 94 96 96 94 95 94 85 82 82 82 85 86 88 90 86 83 81 77 78 91 99 98 96 96 95 96 96 94 95 98 99 100 96 95 99 97 93 90 82 85 88 80 80 82 73 70 73 72 71 71 73 77 75 74 75 74 74
8 7 7 8 8 8 9 9 10 12 14 14 14 14 15 19 20 20 24 27 26 26 28 31 36 42 49 51 52 58 64 70 73 70 69 76 85 87 88 95 98 97 95 92 95 98 92 87 85 87 91 88 85 87 82 79 84 81 80 91 100 98 95 95 94 95 97 96 96 98 96 94 93 92 93 89 85 83 78 81 84 78 83 87 77 72 73 71 72 74 77 79 79 79 80 77 75
7 7 8 9 10 10 10 11 11 10 13 14 15 16 17 17 19 21 26 30 30 29 29 30 34 41 50 53 57 61 63 69 73 71 75 84 88 84 83 91 94 91 90 92 97 99 93 90 92 92 94 91 90 95 91 83 83 83 87 98 101 97 96 97 95 94 94 92 91 93 88 86 94 95 87 80 77 78 79 82 86 83 78 75 69 68 70 70 75 81 81 81 81 80 78 76 77
7 7 8 10 10 12 13 12 11 11 13 14 15 18 17 16 19 23 28 33 34 33 33 35 37 44 51 54 56 58 62 70 75 77 81 85 87 84 81 85 87 88 92 96 96 93 90 93 97 96 95 96 97 99 96 89 87 86 88 95 95 92 93 93 92 89 86 84 83 84 82 83 92 91 83 77 75 82 88 81 78 75 64 61 64 66 70 70 72 79 80 79 80 78 74 72 74
7 6 7 8 8 11 12 11 10 10 11 13 16 18 15 17 22 24 28 35 37 37 40 43 45 48 52 53 54 57 63 70 75 80 84 87 87 83 81 85 89 90 92 93 90 89 93 98 100 98 98 99 98 98 98 93 89 85 80 83 87 87 88 88 85 80 75 74 74 73 76 83 85 81 78 74 70 78 80 69 69 70 60 61 66 68 76 77 74 78 79 77 76 75 71 68 65
6 6 7 8 7 8 9 9 10 10 10 11 14 14 12 17 21 23 29 33 35 40 43 44 46 49 50 51 53 57 62 67 73 80 85 88 84 79 81 87 91 91 90 92 92 92 96 99 98 99 100 99 96 94 93 88 84 81 76 78 84 84 83 80 73 68 65 64 65 67 71 79 82 78 74 70 68 76 78 75 78 74 64 68 71 69 76 77 77 81 79 76 74 72 70 65 62
7 6 7 7 6 6 8 9 10 10 11 12 12 10 11 17 21 21 27 32 34 38 40 41 45 48 49 51 54 57 61 68 74 79 84 86 81 79 84 88 90 90 91 95 97 96 97 98 98 99 97 92 88 85 83 79 75 73 70 72 78 78 74 69 63 60 59 56 60 70 73 72 77 80 78 76 77 77 76 79 85 81 75 77 77 76 79 78 79 81 79 77 74 71 70 66 64
6 6 6 6 6 6 8 10 11 10 11 12 11 9 10 18 22 21 24 31 33 34 36 41 46 47 48 53 58 61 65 72 78 82 85 83 80 82 86 89 89 88 88 91 94 97 98 95 94 93 88 84 84 83 80 75 71 69 67 67 69 67 63 63 60 56 58 63 67 73 74 72 75 78 78 81 83 80 76 80 86 87 82 79 80 81 81 82 82 80 77 76 74 72 72 64 56
5 5 5 6 8 8 8 10 11 11 11 11 11 11 10 12 16 16 17 24 30 31 35 39 41 44 47 54 61 65 68 73 77 81 83 79 79 85 88 87 88 88 87 86 88 91 93 96 93 85 82 83 82 79 79 78 74 69 67 66 66 66 64 62 59 57 64 74 75 74 75 75 76 78 79 83 85 85 86 88 86 84 82 80 82 82 82 84 82 76 72 72 74 73 67 59 48
5 5 4 5 7 8 8 9 9 9 10 11 11 12 11 11 12 12 14 20 25 29 32 34 36 41 47 52 58 62 67 70 72 76 79 76 76 81 83 84 86 88 86 85 85 85 88 92 87 80 81 83 82 80 79 80 77 67 64 65 61 61 62 59 58 63 70 74 73 73 73 73 74 76 79 81 79 74 77 82 83 83 84 83 83 85 87 84 78 75 73 73 76 66 51 46 37
5 5 5 5 6 6 7 7 7 8 10 12 13 13 13 14 15 14 15 19 22 24 28 32 34 39 46 51 55 59 63 65 69 74 75 73 73 77 81 85 87 86 85 83 83 84 87 87 81 81 84 82 82 82 77 77 73 61 61 64 55 49 51 50 52 62 70 70 71 73 71 73 74 73 76 79 75 70 71 78 81 83 84 83 83 85 85 81 79 78 75 73 74 63 44 34 21
5 5 4 6 6 6 8 9 8 7 8 11 12 12 14 16 17 16 16 18 18 19 24 29 34 41 48 54 56 59 62 63 67 70 70 71 73 75 80 86 87 87 85 81 80 82 86 87 84 83 83 81 82 81 75 70 61 49 50 53 49 46 49 53 59 65 67 67 71 73 72 74 74 73 77 80 79 78 78 80 81 83 86 85 86 86 81 77 77 78 74 69 70 63 45 33 23
Wind_Speed
3 3 4 5 4 3 2 3 3 3 3 2 3 2 3 3 1 4 6 5 4 7 5 6 13 10 3 4 5 5 5 5 4 2 3 5 10 16 16 16 18 18 18 16 15 14 13 14 15 14 14 14 13 12 13 13 13 15 13 12 11 11 11 10 9 9 9 8 7 7 6 4 3 2 1 1 2 2 2 3 3 3 4 4 5 6 6 7 7 7 7 8 8 7 6 4 4
3 3 4 5 3 2 1 4 3 2 4 3 3 2 4 3 3 5 6 5 5 7 7 9 14 8 2 4 5 4 7 9 9 7 6 9 14 15 15 18 18 18 17 15 14 14 13 14 16 15 14 14 13 13 12 12 13 13 13 12 11 12 11 10 9 9 9 8 7 6 5 3 2 2 1 2 3 3 4 4 4 5 5 6 7 7 7 7 7 8 8 9 9 8 7 5 4
4 4 2 5 3 2 1 3 3 2 3 2 4 4 3 2 5 6 6 6 7 9 9 11 12 6 3 8 4 3 6 6 8 9 10 13 15 14 15 19 18 18 16 15 14 13 12 13 15 15 14 14 14 13 13 12 12 12 12 11 11 12 10 9 9 8 7 7 6 5 4 2 1 2 2 3 4 5 5 6 6 6 6 7 7 7 7 8 8 9 9 9 9 9 8 7 6
3 3 2 5 4 3 2 3 2 3 2 2 4 6 4 3 7 7 7 6 7 9 10 12 10 3 1 7 4 4 6 5 6 8 12 12 13 16 17 19 19 18 16 14 14 13 13 12 14 14 14 14 13 13 13 12 12 11 11 11 11 11 10 9 8 7 7 6 5 4 3 2 2 2 3 4 5 6 6 6 7 7 7 7 7 8 8 9 9 9 10 9 9 9 9 8 7
2 3 2 4 4 1 2 2 1 2 1 1 2 7 5 4 7 6 7 5 6 7 10 12 9 5 2 5 3 3 6 5 6 7 13 12 13 18 18 19 19 18 16 14 14 14 13 13 13 14 13 13 12 12 12 12 11 11 11 11 11 10 10 9 8 7 7 6 5 4 3 3 3 4 5 6 7 7 7 7 7 7 7 7 8 8 8 9 9 9 10 10 10 10 10 9 9
2 3 3 3 3 2 2 1 0 1 4 4 1 7 6 4 6 7 7 6 5 5 10 12 7 8 4 6 5 6 5 3 6 8 13 13 15 18 18 19 17 18 15 13 13 13 14 13 13 13 13 12 12 12 11 11 11 10 10 10 9 9 10 9 7 6 6 5 4 4 4 4 5 6 6 6 7 7 8 8 7 7 8 8 8 8 8 8 8 8 9 10 10 11 10 10 10
4 4 3 3 3 3 2 1 2 2 4 4 4 5 5 5 5 6 8 6 5 4 9 10 7 9 5 5 5 7 5 3 5 9 13 15 17 18 18 18 16 17 15 13 12 11 14 12 12 12 11 11 11 11 11 10 10 9 8 8 8 7 7 6 6 5 5 4 4 4 5 5 6 6 6 7 7 7 8 8 7 7 8 8 7 7 7 8 8 8 9 10 10 10 10 10 10
4 5 4 4 2 2 1 2 3 3 3 3 4 4 5 7 5 5 6 6 4 4 8 9 8 8 4 4 4 5 4 4 6 11 15 17 18 18 17 17 16 16 14 14 12 11 13 12 11 11 10 10 10 10 10 9 8 8 7 7 6 6 5 5 5 5 5 4 5 5 5 6 6 6 7 7 6 6 7 7 6 7 7 7 6 7 7 7 8 9 9 10 10 10 10 11 11
4 5 5 4 2 0 1 3 3 4 4 4 4 5 6 7 5 4 5 5 4 5 7 9 9 5 6 5 5 6 4 5 10 14 17 18 18 17 16 15 15 16 15 14 13 12 13 13 11 11 10 10 10 9 8 8 8 7 7 6 6 5 5 5 5 5 5 5 5 5 6 6 6 6 6 6 6 5 6 6 6 6 6 6 6 6 7 8 8 9 9 10 10 10 10 11 11
5 4 4 3 2 1 3 3 4 4 5 5 5 6 7 8 6 4 5 6 4 6 7 8 7 3 8 7 6 6 5 8 13 16 17 18 17 16 15 15 14 15 15 14 13 12 12 13 12 11 10 9 9 9 8 7 7 6 6 6 6 5 5 5 5 4 4 4 5 5 5 6 6 6 5 5 5 5 5 5 6 5 5 6 6 6 7 8 9 10 11 10 10 11 12 11 11
6 3 4 3 3 4 4 4 4 5 6 5 5 7 7 9 7 6 5 5 4 6 7 5 6 6 7 7 6 5 7 11 15 17 17 17 16 15 15 15 14 15 15 15 13 12 12 12 11 11 10 9 8 8 8 7 7 6 6 6 5 5 5 5 4 4 4 4 5 6 5 6 6 5 5 5 5 5 5 5 5 5 5 5 6 6 7 8 9 10 11 12 11 11 12 12 11
5 3 4 3 5 5 5 4 5 5 6 4 5 7 7 8 8 7 5 5 6 6 7 4 5 7 6 6 6 7 10 13 16 18 17 16 15 14 15 14 15 14 14 15 13 11 11 11 10 10 10 9 8 8 7 7 7 7 6 6 5 5 5 4 4 5 5 5 6 6 5 5 5 5 6 5 5 5 5 5 5 4 5 5 6 6 7 9 10 10 11 12 13 12 13 13 12
6 6 5 4 5 4 5 4 4 4 5 4 5 7 7 7 8 7 6 6 6 5 5 4 6 5 4 8 8 10 13 15 17 17 17 16 15 14 13 14 15 14 14 15 13 11 10 10 9 8 9 8 7 7 7 7 7 6 6 5 5 5 5 5 5 5 5 5 5 6 5 5 5 6 6 6 5 5 4 4 4 4 5 5 6 7 8 9 10 11 12 13 14 14 14 14 12
5 5 5 4 4 5 6 4 3 3 4 5 6 9 7 5 6 6 5 6 4 4 6 6 6 4 5 8 9 13 15 16 17 17 16 15 14 14 13 13 15 14 14 15 13 11 10 10 8 8 8 8 7 7 7 7 7 6 6 5 5 6 6 5 5 5 5 5 5 5 5 5 6 6 6 5 4 4 3 3 4 4 5 6 6 8 9 10 11 12 12 13 14 14 15 15 13
5 6 5 3 6 5 6 5 4 3 5 5 7 10 7 3 3 4 2 3 4 5 6 6 5 2 5 7 9 14 16 18 18 17 16 15 14 13 12 13 14 14 14 14 13 11 10 10 8 8 8 8 8 7 8 7 7 6 6 5 5 6 6 6 6 5 5 5 5 6 5 5 5 5 4 4 3 3 3 3 4 5 6 6 7 9 10 11 12 13 13 13 14 14 14 15 14
5 6 4 3 8 7 7 6 4 5 6 6 9 10 7 4 3 4 2 1 5 7 5 5 3 1 3 6 11 16 17 19 18 17 16 15 15 13 12 12 13 14 14 14 13 11 10 10 9 8 8 8 8 8 8 7 7 6 6 5 5 6 6 6 6 5 5 4 5 5 4 4 4 4 3 3 3 3 3 4 5 6 7 8 8 10 12 13 13 14 15 15 14 15 15 15 15
6 6 2 6 8 8 9 7 4 6 8 9 11 8 7 5 2 4 3 1 5 7 4 4 3 3 5 8 14 17 17 19 18 18 17 15 15 14 13 12 12 13 14 14 13 12 11 10 9 8 8 8 8 7 7 7 7 7 6 5 5 6 6 7 7 6 5 4 4 4 3 2 3 4 3 4 4 3 4 5 6 7 8 9 9 11 13 14 14 15 16 16 16 17 17 16 15
5 4 5 7 8 8 8 8 6 7 9 10 10 6 5 6 4 4 4 3 5 6 5 5 6 7 9 12 16 18 17 18 17 18 17 16 15 14 14 14 13 12 13 13 12 12 12 11 10 9 9 8 8 8 7 7 7 7 6 6 6 6 6 7 7 6 5 4 3 3 3 3 4 4 4 3 3 4 5 6 6 8 9 10 11 12 13 15 16 16 17 17 17 18 18 16 14
5 4 6 7 7 8 7 9 8 7 10 11 10 5 4 7 5 3 3 4 6 6 5 5 7 9 11 15 16 16 17 17 17 17 16 15 14 14 14 13 13 12 12 12 11 12 12 12 11 10 10 9 8 8 8 9 8 8 7 7 6 6 7 7 6 5 5 4 4 5 5 5 5 4 3 2 2 4 5 5 6 8 9 11 12 13 14 16 16 17 18 18 18 18 17 15 13
3 4 6 7 6 7 7 7 8 10 12 12 10 6 5 7 6 3 2 3 5 4 4 4 7 11 14 17 16 15 17 16 16 16 15 14 13 13 12 12 13 12 12 11 11 12 12 11 10 10 11 10 9 8 9 9 10 10 9 8 7 7 7 7 7 6 5 5 5 6 6 6 4 3 2 1 3 4 5 7 8 9 11 13 15 15 16 17 17 18 19 19 19 18 16 14 11
3 4 6 7 4 6 7 6 10 14 13 12 11 7 6 7 6 4 3 3 4 3 3 3 5 12 16 17 17 16 16 16 15 14 14 13 12 11 10 11 11 11 11 11 11 11 11 11 10 10 11 11 10 9 9 10 10 10 10 9 8 8 8 7 7 6 6 6 7 7 6 6 5 3 3 2 4 5 6 8 9 11 12 13 15 17 17 18 19 20 20 20 20 18 17 16 12
2 4 6 5 4 6 7 7 11 13 12 12 11 7 6 8 6 5 5 4 2 2 5 3 4 12 15 15 16 16 16 15 14 13 13 12 11 10 9 9 9 10 10 10 10 10 11 10 10 9 10 11 10 9 9 9 9 9 9 9 9 9 9 8 7 7 7 8 8 7 6 5 4 4 4 4 4 5 6 8 8 10 11 11 14 17 18 19 20 20 21 21 20 18 16 15 12
2 6 7 5 5 7 8 8 9 10 10 11 9 7 8 8 6 6 8 6 3 3 5 4 5 13 15 14 15 15 16 15 14 13 12 11 10 9 8 8 8 9 9 9 9 9 10 10 10 9 9 10 10 9 8 8 8 8 8 10 10 9 9 9 8 7 8 9 9 8 6 5 4 4 5 5 5 5 6 8 8 10 10 11 14 18 18 19 20 20 21 20 20 18 16 13 11
3 5 6 5 6 8 9 10 10 8 7 8 6 6 8 6 4 5 7 7 2 3 4 6 6 12 17 16 15 14 14 14 13 13 11 10 9 9 8 8 7 7 8 8 8 9 10 10 11 10 10 10 9 9 8 7 7 7 7 8 9 10 10 8 7 8 9 10 10 9 8 5 5 5 5 5 5 6 6 7 9 10 11 11 13 17 19 20 21 21 21 20 19 19 17 14 12
3 5 5 5 7 9 10 11 11 8 6 6 5 5 5 4 1 3 6 6 5 2 5 9 7 11 17 17 16 15 14 13 12 11 10 8 8 9 10 9 7 6 7 7 8 8 9 10 11 10 10 10 9 8 8 7 7 6 7 7 7 9 8 7 8 8 8 9 9 9 8 6 5 6 6 5 6 6 7 8 9 10 11 13 14 16 19 20 21 21 21 20 20 19 18 15 12
6 4 4 6 8 9 10 11 11 10 7 6 6 4 4 3 2 4 7 7 8 4 6 10 10 12 16 17 16 15 14 13 12 11 9 7 8 9 9 9 7 6 6 6 7 7 8 10 10 10 10 10 9 8 8 8 7 7 7 7 7 7 7 8 9 8 7 7 8 9 9 8 7 6 6 6 7 8 8 9 10 10 11 13 14 16 19 20 21 22 21 20 19 18 17 15 12
5 1 5 6 8 9 9 10 10 9 8 7 5 3 3 3 4 3 7 9 10 8 8 11 11 13 15 16 17 15 14 12 11 10 9 8 7 8 9 8 7 6 5 5 6 6 7 8 8 9 10 10 8 8 8 8 7 6 6 7 7 7 8 9 8 8 8 8 9 10 10 10 9 7 7 7 7 9 9 10 10 11 11 12 14 17 20 20 20 22 22 20 18 16 14 13 11
3 5 7 7 7 8 8 9 10 9 7 8 5 3 4 4 6 4 5 10 11 10 11 13 13 13 13 15 16 15 14 13 11 11 10 9 8 7 7 6 6 6 5 5 5 4 5 6 8 8 8 9 7 7 9 8 7 6 7 7 6 8 8 9 9 9 9 9 10 10 9 10 10 8 8 8 8 9 10 10 11 11 11 13 15 18 20 20 19 21 22 20 18 15 13 12 12
4 5 4 7 8 7 8 8 10 8 5 8 6 2 5 6 7 5 5 9 11 10 10 12 13 13 14 14 15 15 14 13 13 12 12 11 10 8 8 7 6 5 4 3 3 3 4 4 5 5 6 8 7 6 9 8 7 7 7 7 7 8 9 9 10 10 10 11 12 11 10 10 10 8 8 9 9 10 11 12 12 11 11 14 17 19 20 19 16 18 20 17 14 14 11 10 11
4 4 2 4 6 6 9 8 9 7 5 9 7 1 3 5 7 6 7 9 11 10 9 11 11 12 14 14 15 15 14 14 15 14 13 12 11 10 9 8 6 5 4 3 1 3 4 3 3 2 2 5 5 6 8 8 7 7 7 7 8 9 9 10 10 10 11 12 13 12 12 11 10 9 9 9 9 10 11 12 12 11 12 15 17 19 20 18 16 16 17 14 11 10 8 9 11
3 2 2 3 0 5 9 8 10 8 6 9 8 1 6 3 6 8 7 9 10 10 9 10 10 12 13 14 15 15 16 17 17 16 14 13 12 10 9 9 7 6 6 5 3 3 4 4 4 3 3 3 4 5 6 8 8 8 8 9 9 10 11 11 11 11 11 11 12 13 14 13 12 10 10 9 9 10 12 12 13 13 13 16 17 19 20 18 17 16 14 12 10 8 8 10 11
3 2 1 1 4 5 8 8 10 7 6 10 8 1 6 5 5 8 8 9 10 9 8 9 10 11 12 13 15 15 16 18 18 17 16 15 14 13 12 11 9 8 7 7 6 5 5 6 5 5 5 5 5 5 5 6 8 9 9 10 10 12 13 13 13 13 13 12 11 13 15 15 13 12 11 10 10 11 12 11 12 14 14 15 17 20 20 17 16 15 12 11 9 8 10 11 12
2 3 4 4 5 2 6 7 9 6 6 9 8 3 3 5 4 8 9 9 10 9 8 8 9 10 11 12 13 14 15 16 17 18 17 16 15 15 14 13 11 10 9 7 6 5 4 5 5 5 6 6 6 6 6 5 7 8 10 11 12 13 14 15 15 15 15 16 15 15 17 16 14 13 12 12 13 13 13 12 11 14 15 15 17 20 18 16 15 14 11 9 8 9 9 10 12
2 4 5 5 5 3 3 6 7 8 7 7 8 5 1 5 6 8 10 9 9 8 7 8 8 9 10 11 11 12 13 14 16 17 17 16 14 14 14 14 13 12 11 9 8 7 5 4 4 5 5 6 6 7 7 6 6 8 9 11 13 14 15 17 17 17 17 18 18 18 19 18 16 15 14 14 14 14 14 12 11 14 15 15 18 19 17 16 15 13 9 8 8 9 8 10 12
7 7 6 5 4 3 3 3 7 10 8 6 7 5 3 3 6 8 10 9 9 7 7 7 8 9 9 10 10 11 12 13 13 14 15 15 14 12 12 13 13 14 13 12 10 9 7 6 6 5 5 5 6 7 8 8 8 9 10 11 12 13 14 16 18 19 19 19 19 20 20 19 19 17 17 16 15 14 12 10 10 13 14 16 18 17 15 16 15 11 8 7 7 7 7 8 11
9 9 7 6 3 4 5 4 6 8 7 6 6 4 2 4 6 7 9 9 8 7 7 7 8 9 9 9 9 9 10 10 10 11 13 14 14 12 12 13 14 15 15 13 11 11 10 8 8 7 6 5 6 7 8 9 11 12 13 13 13 13 14 15 16 18 19 19 20 21 20 20 20 19 19 17 16 15 13 12 12 12 13 14 16 16 15 16 14 9 6 6 6 6 7 8 11
9 9 6 3 3 5 5 4 6 7 6 4 4 4 2 3 5 6 8 9 8 8 8 8 8 8 8 8 7 8 8 7 7 9 12 14 14 14 13 13 14 16 16 15 13 13 12 11 10 10 8 8 9 9 10 10 12 13 15 16 16 16 16 16 17 17 17 18 20 21 20 21 21 21 19 17 16 16 15 15 14 12 11 12 13 16 17 16 11 5 4 4 3 4 6 8 11
9 8 4 1 4 6 6 4 5 6 5 2 3 5 4 4 5 7 7 7 7 8 9 9 8 8 8 7 7 6 6 6 7 9 11 13 14 14 15 15 15 16 17 17 16 15 14 13 13 11 11 11 12 12 13 14 14 14 15 16 16 16 16 17 17 17 18 19 19 19 19 21 22 22 19 16 16 16 16 15 14 13 13 13 14 17 17 15 9 4 3 3 3 4 6 7 10
7 5 3 2 5 5 5 4 6 6 4 1 2 4 3 4 5 7 8 7 6 6 8 8 7 7 7 7 7 6 5 7 8 9 10 11 12 13 14 14 15 15 16 18 18 17 15 14 14 13 12 13 14 15 15 15 15 15 15 16 17 18 18 20 20 20 21 21 21 21 20 22 24 23 20 17 17 17 17 15 14 14 16 16 17 17 16 13 6 3 2 2 4 5 5 7 10
3 3 2 3 5 3 3 4 7 6 3 2 3 3 1 4 4 5 6 6 4 5 6 7 7 7 7 6 5 6 6 7 8 8 9 10 10 11 12 13 13 14 16 17 17 17 16 16 15 14 13 14 15 16 16 16 17 17 17 18 19 21 22 23 24 24 24 24 25 23 21 23 25 24 22 20 19 18 17 16 14 16 18 18 17 16 15 10 5 3 1 2 5 6 6 7 10
2 2 4 4 7 6 5 4 7 6 4 2 2 3 2 2 2 4 5 5 4 5 6 7 8 7 7 6 5 6 6 6 6 7 8 8 8 8 9 10 12 13 13 15 15 15 16 16 16 14 14 15 15 16 16 17 18 18 19 19 20 22 23 24 24 23 22 21 22 19 18 21 23 21 21 21 20 18 18 18 16 16 16 16 15 14 12 7 4 3 1 2 5 7 8 8 10
3 3 6 6 5 4 4 4 6 4 3 2 6 3 5 5 2 1 4 5 5 6 6 7 8 8 7 6 6 6 6 5 5 6 7 8 7 6 6 7 9 10 10 11 10 11 13 14 15 14 14 15 15 15 15 16 18 18 19 20 21 22 22 22 21 20 19 18 20 19 19 22 21 19 19 20 20 21 21 19 15 14 13 13 12 10 6 3 3 3 2 3 5 7 9 9 9
2 5 6 5 3 2 2 0 4 2 3 2 4 5 3 7 3 3 3 3 4 6 6 6 6 7 7 6 5 5 5 5 5 5 6 6 7 6 6 5 5 5 6 6 7 8 10 12 13 13 14 15 15 15 14 15 16 17 18 19 20 21 21 20 20 20 20 19 20 19 20 21 20 21 21 20 20 20 18 14 13 13 11 10 8 5 2 2 2 3 3 3 5 7 9 9 8
1 6 6 4 2 3 3 4 5 3 2 3 2 4 2 4 6 4 3 3 3 3 4 6 7 6 5 4 4 4 4 4 4 4 5 5 5 5 5 5 3 4 3 4 5 6 6 8 8 9 10 12 13 14 13 14 14 15 16 18 19 19 19 19 19 19 20 19 18 17 17 19 19 20 20 20 20 16 14 13 11 11 9 6 4 3 1 0 3 4 3 3 5 7 7 7 8
4 5 4 3 3 3 4 5 3 3 3 2 4 2 2 4 6 4 2 3 5 4 3 3 6 6 5 4 4 4 4 4 3 4 5 5 4 3 4 4 4 5 4 3 3 3 4 5 5 5 6 7 9 11 12 13 14 15 16 17 18 17 17 18 19 19 19 19 19 17 16 16 16 16 16 16 15 13 12 12 8 5 3 2 3 2 0 1 3 3 3 4 4 5 6 7 8
4 1 3 2 2 2 3 4 3 3 4 2 4 3 3 3 5 3 1 3 5 6 6 4 3 5 6 5 5 5 5 5 5 6 6 6 5 3 2 2 2 2 1 1 1 1 3 3 4 4 5 6 7 9 10 11 13 14 13 14 14 15 15 16 16 14 13 13 14 13 13 12 11 12 14 13 12 11 10 6 2 1 3 4 3 2 2 2 2 3 3 3 4 4 5 7 8
1 4 4 4 4 3 3 2 3 4 1 4 5 3 3 1 5 3 3 3 4 4 5 5 5 7 7 6 6 6 7 7 6 7 6 5 6 5 3 3 3 3 3 1 0 1 1 1 3 4 4 6 7 7 9 9 10 11 10 10 10 11 12 12 10 8 6 5 5 5 6 6 3 4 9 10 8 7 3 4 6 6 6 4 3 4 3 2 2 3 3 4 5 6 7 8 8
5 5 4 4 4 3 3 3 3 3 2 5 5 1 4 1 5 3 4 5 4 4 4 5 6 8 9 8 8 8 8 8 7 7 7 7 8 7 5 5 5 5 4 2 1 1 1 1 1 3 3 5 5 5 6 6 6 7 7 6 6 7 7 6 4 4 4 6 6 4 5 4 4 6 4 4 4 6 9 11 9 6 4 4 4 5 3 3 3 3 4 5 7 8 9 10 10
6 5 4 5 3 2 3 3 2 2 2 5 4 1 3 4 6 4 6 7 5 5 5 5 7 9 10 9 9 9 8 8 8 8 9 8 9 8 6 5 5 5 4 3 3 2 2 2 2 2 2 3 3 3 3 3 3 4 5 4 4 6 5 3 3 4 6 8 9 8 9 9 8 8 9 9 11 13 13 11 8 6 5 5 5 5 3 3 4 4 5 6 7 9 10 11 10
6 4 4 4 3 3 3 2 2 1 3 4 1 3 1 5 5 4 7 7 6 7 6 7 8 9 11 10 10 10 9 9 9 9 9 9 9 9 6 5 4 4 4 4 3 2 2 2 2 2 1 2 2 2 3 3 3 5 6 6 8 10 11 10 10 11 11 12 12 11 11 11 10 9 11 13 13 13 11 9 8 7 6 6 5 4 3 4 4 5 6 8 8 9 10 10 9
2 2 4 4 3 2 2 1 1 0 3 4 2 2 2 3 4 5 8 8 7 8 8 8 9 10 11 11 10 10 10 9 9 9 9 9 9 8 6 4 4 4 4 4 3 2 2 2 2 3 2 2 3 3 4 5 5 7 8 9 11 11 11 12 13 14 15 14 14 13 13 12 11 11 11 12 11 11 9 8 8 6 5 5 4 5 4 4 6 6 7 7 7 8 9 9 9
2 1 5 3 1 2 2 2 3 3 1 3 2 1 3 4 6 8 8 8 8 8 9 10 10 11 11 11 10 9 9 9 9 9 10 9 9 8 5 4 4 4 4 3 3 3 3 3 3 4 4 4 4 4 5 6 7 8 9 10 12 12 12 13 14 15 15 15 14 14 14 12 11 11 11 11 10 9 8 7 6 4 4 4 4 6 5 6 7 5 5 6 6 7 9 10 11
2 4 4 2 4 4 4 0 0 4 3 2 1 1 4 5 5 6 7 8 8 8 9 10 10 11 11 10 10 9 9 10 9 9 10 9 9 7 5 5 5 4 4 4 4 4 4 4 4 4 5 5 6 6 7 7 7 9 11 12 13 13 13 14 15 15 14 14 14 13 12 12 11 10 9 8 8 7 6 6 4 3 3 4 5 5 5 7 6 4 6 6 5 8 11 12 13
3 2 2 4 1 3 4 3 2 5 3 2 1 0 2 3 3 5 6 6 8 8 8 10 11 10 10 10 10 10 10 11 11 10 10 9 7 6 6 6 6 6 6 5 5 5 5 5 5 5 6 6 6 6 7 7 8 10 12 14 14 14 14 14 13 14 13 13 12 11 10 11 10 8 7 7 6 5 4 3 2 1 2 4 4 3 4 6 4 4 6 7 8 11 14 15 14
5 2 3 1 4 4 4 4 3 4 3 2 3 1 1 2 3 7 7 4 6 9 9 10 11 10 11 11 11 11 11 11 11 10 10 8 7 6 7 7 7 7 7 6 6 6 5 5 6 6 6 6 6 6 7 8 9 11 12 13 13 12 12 12 11 11 11 10 9 8 8 8 7 6 6 5 4 3 2 2 1 1 2 2 2 2 4 5 3 3 5 6 10 13 14 15 14
2 2 3 3 4 1 2 3 3 3 2 1 2 1 1 3 4 6 9 7 7 9 8 8 10 11 11 12 12 12 12 11 11 10 10 9 7 6 7 7 7 7 8 7 7 7 6 5 6 7 6 6 6 7 7 9 10 11 12 12 11 11 11 10 10 10 9 7 7 7 7 7 6 6 5 4 3 2 1 2 2 2 2 2 2 2 4 5 4 4 4 6 10 14 15 15 13
6 6 5 4 2 1 2 2 2 4 3 1 1 1 3 4 3 4 9 9 7 8 8 8 11 12 12 12 12 12 12 11 11 11 10 9 8 7 7 7 8 8 8 7 7 6 6 5 6 6 6 6 6 7 8 9 9 11 12 10 10 11 11 11 10 9 8 6 7 7 6 6 5 5 5 4 4 3 3 3 3 2 1 1 3 2 4 5 5 5 6 7 10 15 18 16 12
4 5 5 4 4 3 5 4 3 3 3 2 2 1 4 4 1 2 6 7 7 8 9 10 12 13 13 13 13 13 13 12 12 11 10 10 10 9 8 7 8 8 8 7 6 6 5 4 5 6 6 6 6 7 8 9 10 11 12 10 11 12 11 11 10 9 8 7 7 7 7 6 5 5 6 5 5 4 4 4 2 1 1 3 4 3 3 3 4 5 7 8 11 16 18 15 11
Wind_Direction
339 327 338 335 339 325 223 207 230 200 238 228 142 132 110 70 79 119 123 125 122 134 118 128 148 142 126 133 120 61 52 85 45 32 100 87 134 147 147 150 158 158 154 153 157 156 157 160 159 161 162 161 159 157 158 160 161 162 164 164 162 161 161 156 155 152 143 141 139 139 142 145 150 162 172 200 249 267 278 285 290 297 301 307 311 314 317 316 316 314 310 308 308 306 303 303 305
317 331 349 345 351 320 192 206 247 178 219 197 128 93 97 109 140 125 115 106 96 125 135 144 149 136 77 126 125 90 80 70 52 64 97 120 136 143 149 151 154 159 156 151 155 154 158 163 159 160 159 158 158 157 154 153 154 156 161 164 164 162 160 153 154 157 149 144 140 144 150 150 153 179 233 252 258 261 271 281 289 297 301 307 313 316 317 316 315 313 311 310 306 301 295 287 283
323 346 350 342 325 272 268 221 255 215 219 170 113 93 113 125 109 100 89 86 102 128 138 145 149 136 144 149 125 82 96 77 68 80 114 135 141 147 150 149 153 160 157 150 154 155 158 162 160 158 154 154 157 157 153 149 150 152 155 158 161 160 159 157 157 159 153 150 149 159 166 170 202 232 256 261 269 277 287 295 301 304 307 312 316 316 315 312 312 310 308 307 303 300 293 281 268
329 330 288 316 284 237 246 227 267 262 239 134 120 103 108 103 106 100 82 84 123 139 140 150 152 135 157 143 116 84 100 97 79 87 128 144 149 150 150 150 153 159 157 151 155 158 159 159 158 157 152 151 153 155 152 150 151 153 154 156 158 160 164 166 164 161 159 160 164 180 189 206 242 260 273 281 289 294 299 304 305 305 310 316 317 315 314 311 310 310 309 307 301 296 291 282 270
290 299 294 297 278 278 265 244 271 265 1 10 130 104 96 98 119 115 93 91 139 148 150 161 155 146 111 90 91 80 82 98 95 102 132 142 148 147 150 151 152 157 158 153 158 163 161 158 155 155 153 151 151 152 152 152 154 157 157 158 160 164 170 170 168 167 168 172 185 207 227 248 265 282 291 297 297 295 298 302 306 310 315 318 318 316 315 313 312 313 313 311 305 300 294 285 273
220 276 289 272 269 292 274 261 319 70 42 335 6 88 85 101 122 119 109 110 144 149 157 169 162 163 145 80 73 57 60 93 109 123 136 142 145 146 150 151 153 157 156 153 161 166 162 160 156 152 153 153 153 154 155 156 157 159 160 162 166 172 175 172 174 181 187 195 211 230 250 268 284 295 298 297 291 292 299 304 311 315 317 319 320 320 317 316 314 314 316 314 312 308 300 287 273
233 264 254 254 237 241 275 52 36 63 55 351 5 61 75 102 123 132 130 129 148 148 163 177 173 167 144 117 109 61 61 79 113 138 145 146 144 148 150 150 154 158 155 153 158 161 159 163 159 152 153 156 157 159 163 166 164 166 167 169 172 175 176 176 183 195 207 220 236 254 272 286 296 298 295 291 290 296 301 306 312 313 315 318 320 321 320 319 315 315 317 313 313 311 301 289 278
259 284 264 273 237 209 317 58 56 61 72 24 22 44 69 102 130 147 137 129 148 153 170 180 185 177 123 136 129 69 69 81 128 145 148 146 144 150 150 150 155 160 158 153 156 160 161 166 163 155 159 163 163 165 169 173 174 179 182 184 186 187 189 194 204 215 226 243 258 270 282 289 292 289 287 289 295 300 298 300 306 312 314 319 320 322 326 326 321 321 321 316 318 316 306 296 289
265 293 281 280 298 206 54 67 73 78 81 51 50 72 86 112 133 143 127 112 129 153 170 175 195 195 125 126 97 90 92 102 134 143 146 145 146 150 148 151 157 161 160 155 155 159 165 167 164 161 166 169 166 168 171 175 178 185 190 193 196 199 205 212 221 230 240 255 268 274 280 279 280 282 285 291 296 294 292 294 298 307 311 318 321 326 332 328 326 326 326 325 327 324 314 306 303
264 290 309 294 308 12 63 58 70 85 82 66 71 89 109 126 122 110 122 117 128 150 153 168 197 182 122 120 98 109 119 125 138 139 143 145 147 149 148 152 156 161 160 160 155 154 167 168 166 167 170 172 169 172 174 178 180 185 192 194 196 201 207 216 225 238 249 260 269 271 273 274 276 280 285 288 290 289 290 293 295 303 310 319 323 330 332 326 329 329 328 330 331 328 320 313 312
281 280 289 305 357 24 39 46 68 83 86 88 93 89 109 132 122 97 111 129 145 147 141 168 179 148 125 113 108 127 132 136 141 141 144 146 148 149 149 152 155 160 160 162 157 153 164 167 170 171 173 175 174 176 180 183 183 188 197 200 201 204 209 217 231 243 252 259 263 261 258 266 273 276 280 282 282 283 285 290 296 304 310 317 322 332 331 325 332 332 330 328 328 326 319 315 315
298 318 291 346 20 18 28 43 68 92 95 90 102 94 114 136 127 117 125 137 148 144 143 170 153 148 143 121 123 135 138 142 143 145 146 147 151 151 152 155 155 157 160 161 158 156 162 167 171 174 177 177 177 181 185 188 187 192 197 204 209 214 219 220 234 240 246 251 253 256 253 259 269 271 272 272 272 274 281 290 299 307 311 317 321 330 329 324 330 333 330 325 323 322 316 314 313
303 337 320 10 23 13 27 49 77 117 109 67 86 102 122 127 112 123 137 138 146 142 131 136 141 159 137 116 128 139 142 145 146 147 148 150 154 154 153 157 156 157 161 160 159 160 163 167 170 176 183 179 183 192 192 193 192 196 197 206 215 221 228 222 227 232 237 242 242 250 254 260 261 259 260 263 267 270 277 288 297 305 309 317 323 328 326 323 329 331 328 324 322 321 317 313 312
311 332 316 7 28 26 30 47 82 120 97 59 95 117 121 107 102 121 139 140 133 126 120 121 141 153 128 128 138 144 146 147 149 148 150 153 155 157 155 157 159 160 163 162 164 164 165 169 171 178 185 183 188 198 201 202 198 201 201 207 217 219 225 223 223 227 235 241 244 248 250 253 254 256 261 266 269 261 273 290 299 307 308 318 326 325 322 322 331 330 327 325 324 324 320 315 311
309 317 293 351 25 33 32 37 57 75 79 76 114 126 119 92 116 120 131 130 101 121 130 129 147 143 147 164 153 150 150 148 151 150 151 153 153 157 155 158 161 163 166 167 169 170 170 172 173 181 186 185 188 197 203 208 207 210 208 204 215 219 220 221 224 226 234 242 244 246 246 252 262 274 278 281 281 272 289 303 304 314 315 321 327 323 324 328 333 330 326 328 328 325 320 315 310
297 300 284 14 26 31 30 32 58 84 86 99 121 132 124 105 127 119 106 92 111 134 138 136 147 32 141 154 143 148 150 149 153 152 152 152 152 155 155 163 165 166 171 173 174 175 179 178 180 186 186 185 188 198 204 211 212 214 216 209 218 229 229 228 229 229 234 245 248 253 256 263 279 289 295 290 290 299 316 321 320 325 323 324 325 325 332 334 331 327 325 329 329 325 321 316 309
284 282 333 33 31 35 32 31 54 97 105 119 133 143 126 116 138 118 115 132 135 139 128 121 92 62 117 127 138 147 148 150 154 152 153 154 154 158 161 166 169 171 175 179 179 181 188 189 190 190 186 186 189 198 205 213 213 209 218 221 226 239 241 229 224 223 229 241 250 266 272 260 263 274 283 281 296 326 333 337 339 336 331 327 326 326 331 333 330 328 325 325 326 326 325 317 308
279 295 24 35 33 35 36 53 79 111 119 129 140 148 127 129 146 124 125 150 149 134 113 105 85 87 114 127 143 149 149 153 157 157 158 160 161 163 167 169 173 175 176 182 184 186 193 195 199 195 190 190 191 201 205 213 216 208 216 222 226 235 231 218 213 215 223 231 240 256 254 245 244 255 268 274 308 340 338 338 341 338 333 327 328 329 329 330 331 331 328 327 326 326 325 321 316
281 326 34 42 38 42 53 80 100 126 126 132 139 137 125 131 141 147 159 157 157 142 121 124 109 105 124 137 149 152 152 157 161 164 166 167 169 169 170 172 175 176 177 183 186 190 195 197 203 199 197 197 194 202 206 212 218 214 215 218 219 221 220 215 215 218 220 223 235 237 235 239 237 240 260 298 335 340 334 332 335 333 331 328 331 332 328 329 331 331 331 332 332 330 330 328 324
296 321 37 52 47 61 69 80 105 132 133 136 139 135 131 131 140 152 158 164 183 171 131 153 145 134 142 146 151 155 155 162 166 171 174 174 175 173 174 175 177 181 180 182 187 193 196 198 204 203 202 201 199 203 205 210 214 213 213 214 217 218 220 222 223 224 224 222 229 233 236 243 239 244 269 343 335 330 328 327 334 334 334 330 333 335 330 330 331 331 334 335 336 335 334 330 324
331 343 36 55 55 72 78 82 112 134 140 140 141 147 146 139 151 156 160 178 192 199 166 174 165 152 154 152 153 157 159 166 173 178 180 180 181 177 177 178 181 185 183 185 191 194 198 199 204 213 210 202 204 207 207 211 209 209 211 213 215 215 218 224 226 225 227 228 229 231 235 241 239 251 280 320 317 324 329 327 331 331 333 328 330 336 334 334 333 332 336 337 338 338 337 333 329
311 38 49 57 58 76 93 102 119 136 143 144 148 158 149 145 166 173 187 201 98 167 193 188 175 161 156 155 155 158 164 170 178 183 184 186 186 181 178 179 181 184 186 190 193 196 201 201 201 215 220 211 209 207 211 217 212 209 214 216 212 215 220 220 223 224 225 224 227 230 230 239 247 260 287 307 311 325 329 328 326 324 330 327 329 338 339 338 336 335 337 336 338 339 336 335 330
323 60 64 60 76 93 115 123 127 140 149 148 151 154 149 157 175 180 199 215 69 85 184 171 178 175 160 157 159 161 169 174 180 183 183 187 187 184 182 180 182 185 191 194 195 200 201 204 206 211 223 224 219 216 217 221 219 213 218 222 215 217 223 223 225 230 231 224 224 226 220 233 254 260 276 296 312 323 322 323 323 324 330 328 331 341 343 342 338 336 337 335 336 337 338 337 327
338 43 72 71 97 110 126 133 136 146 148 140 146 157 164 173 165 174 205 219 168 73 159 162 172 183 172 165 165 167 173 175 179 178 176 184 185 185 187 183 185 187 193 196 196 204 204 206 214 211 219 230 228 226 227 227 228 219 224 230 222 222 222 222 228 229 232 228 224 220 209 217 244 251 266 291 308 311 314 321 324 328 331 328 332 340 344 344 341 338 337 334 334 337 340 339 330
355 21 83 97 114 120 132 140 143 147 135 133 154 167 176 180 146 198 208 212 202 106 132 159 165 181 180 176 172 172 177 177 177 174 170 177 182 183 183 179 185 190 190 196 196 203 206 207 216 215 219 231 229 228 232 233 235 225 225 230 229 230 221 217 225 224 228 229 224 219 209 211 235 255 269 286 295 299 311 318 322 329 330 331 336 338 339 342 341 339 338 337 337 340 341 339 338
5 4 112 122 125 128 141 147 151 151 145 157 169 167 180 192 260 228 201 195 194 170 140 157 160 171 181 185 183 181 183 182 180 178 173 177 180 173 172 169 174 190 187 191 197 202 207 209 216 216 218 228 227 227 230 230 235 230 226 227 229 233 226 223 224 221 225 228 229 225 217 215 227 253 273 284 293 299 309 315 321 329 330 331 337 338 337 336 338 339 339 340 341 341 340 340 342
5 63 125 125 132 138 153 153 153 151 153 180 189 161 175 209 247 217 171 178 179 169 162 163 164 168 178 188 193 193 192 190 187 186 182 182 178 161 159 158 161 180 183 185 197 204 211 213 217 219 222 232 228 224 234 236 238 241 235 232 233 236 231 228 226 221 221 223 230 230 224 223 229 249 271 280 292 300 307 313 316 323 327 329 334 338 337 333 334 339 340 342 343 341 342 344 346
72 127 126 133 146 149 162 158 156 156 159 188 203 192 196 212 236 228 151 166 172 167 166 169 172 173 177 185 192 197 199 199 196 195 192 186 185 174 171 170 167 178 178 180 189 201 213 212 218 224 226 240 240 226 241 254 253 253 245 238 238 237 232 229 229 226 224 223 229 232 230 231 232 246 265 274 287 296 303 308 311 319 322 326 333 337 337 334 334 336 338 341 341 343 348 346 350
137 168 157 151 166 166 168 163 163 169 161 179 197 210 199 203 222 221 162 162 169 168 166 169 176 177 180 183 189 196 199 202 202 203 203 198 199 198 193 192 189 188 185 181 177 190 208 211 226 235 225 242 259 236 240 256 254 255 251 246 242 236 233 230 228 228 229 230 231 235 235 234 235 245 264 276 288 298 304 306 308 313 314 324 332 335 337 336 332 330 333 340 340 345 350 340 345
182 214 256 179 183 169 165 162 166 177 148 165 194 101 113 184 199 175 159 169 171 171 169 172 179 181 184 187 191 196 197 201 205 208 209 206 206 207 205 209 210 205 208 218 208 199 213 225 255 299 244 250 272 250 247 255 254 255 251 249 246 238 234 232 232 233 236 239 239 241 238 235 240 248 264 278 290 301 306 306 304 305 311 323 328 331 335 334 329 328 331 339 342 345 346 337 344
234 225 235 234 323 130 156 162 168 175 146 170 210 19 72 113 165 155 163 181 181 181 180 183 186 185 187 191 195 199 202 205 208 211 214 213 211 215 219 222 225 224 224 234 249 237 239 263 290 310 299 288 295 277 267 266 262 259 253 248 245 240 236 233 233 236 241 246 247 247 244 239 243 253 262 273 288 299 304 305 300 300 311 321 324 328 332 330 329 330 329 336 345 347 346 346 349
252 283 221 357 22 111 148 164 179 180 153 182 221 323 83 96 138 163 179 186 189 193 188 190 194 192 191 192 196 201 207 212 213 214 219 220 220 222 228 230 231 231 231 240 256 263 262 277 290 292 292 296 300 302 299 279 266 260 256 252 246 241 239 238 238 237 239 242 243 246 248 245 247 257 263 269 281 292 302 303 295 299 311 317 321 325 328 328 329 329 327 335 346 349 348 351 352
213 321 6 27 18 73 138 157 187 189 155 184 221 291 76 95 122 168 179 185 190 195 193 194 200 199 197 197 199 202 206 211 213 216 218 221 222 223 229 234 232 229 229 236 249 256 258 273 284 281 280 283 286 293 300 290 269 261 260 258 252 245 242 243 245 245 243 244 245 246 250 250 251 259 265 269 275 285 296 297 290 297 309 315 319 323 324 324 328 327 326 335 342 347 351 353 357
5 345 359 21 17 24 117 142 173 189 180 189 209 245 324 98 118 160 177 186 187 195 198 194 199 202 201 202 205 205 205 207 210 214 216 220 224 223 224 228 228 227 226 227 233 235 230 247 265 263 269 277 275 276 282 283 273 266 261 258 256 252 248 247 249 252 253 254 256 255 255 254 254 262 268 270 273 282 294 295 289 296 306 314 318 320 319 320 327 325 323 331 338 349 356 357 2
338 343 347 356 22 58 58 102 150 181 198 202 197 220 245 157 142 157 174 189 192 199 204 198 198 200 201 204 211 211 208 211 212 212 213 218 224 226 224 225 225 225 226 230 235 233 226 230 244 250 269 286 279 270 267 268 270 269 268 267 266 262 259 257 257 258 259 259 260 259 258 256 257 262 269 271 272 280 290 286 283 294 305 314 317 320 318 319 324 320 314 323 335 352 357 359 3
325 326 322 331 11 73 46 68 142 179 196 196 199 202 179 165 165 168 176 189 202 208 210 212 202 197 203 204 208 213 213 216 214 210 209 211 219 225 226 227 226 225 225 226 229 231 234 239 247 257 275 292 290 280 271 269 271 272 273 275 276 276 275 272 269 267 265 264 263 263 260 257 259 264 268 269 268 273 276 275 279 290 302 312 317 319 318 316 317 313 306 320 338 353 352 358 0
309 309 306 329 38 72 61 85 142 190 204 179 200 220 180 154 161 172 180 188 206 217 214 216 210 201 207 208 206 207 210 214 209 204 204 206 214 224 228 230 229 227 226 226 229 237 244 251 257 265 273 279 283 284 283 284 280 277 275 274 277 280 281 279 278 277 273 269 268 269 267 261 259 263 265 264 264 269 272 274 278 281 290 303 312 316 316 312 307 297 295 318 351 352 346 355 0
297 303 309 24 68 67 62 78 138 186 222 154 181 241 226 195 186 175 182 197 207 211 209 212 213 207 206 212 215 206 196 196 193 195 200 205 214 224 229 231 231 230 229 231 236 242 249 254 260 265 269 275 280 282 284 287 287 285 278 273 272 273 275 276 275 276 275 274 273 273 270 264 259 260 264 266 264 265 269 271 272 272 283 299 311 314 311 306 296 279 290 329 355 346 342 345 358
292 295 281 67 67 81 86 93 144 177 234 112 126 269 229 171 189 185 192 209 207 198 200 202 202 204 204 203 209 209 196 186 187 194 202 209 218 229 232 229 231 231 231 236 241 243 248 252 257 263 271 277 280 278 277 279 281 283 280 275 273 273 274 275 275 272 272 273 273 273 271 265 259 258 264 268 266 265 265 266 270 280 292 302 309 308 304 299 284 254 277 346 349 336 332 328 346
269 309 291 70 58 50 80 119 160 179 241 43 55 295 240 142 159 182 199 205 193 191 199 201 198 199 200 198 199 205 204 194 193 197 203 213 223 234 235 231 235 235 235 242 246 245 246 249 254 261 270 275 275 273 273 273 274 276 276 274 274 276 277 278 280 278 276 274 271 269 265 264 264 262 264 267 266 265 262 260 269 288 298 302 304 303 298 288 254 221 275 350 346 337 338 328 334
153 2 330 42 48 26 46 121 165 177 207 249 278 240 175 111 141 166 180 185 192 200 204 209 210 206 203 202 201 204 210 205 198 196 200 215 227 236 241 243 245 244 244 248 250 248 248 250 253 258 267 271 273 276 277 276 277 277 276 276 276 277 277 278 280 280 280 276 271 263 255 262 267 264 266 269 268 268 268 269 278 291 298 301 302 299 291 269 223 214 243 320 336 337 341 338 333
157 75 1 2 21 27 68 139 186 191 168 216 269 261 112 90 32 108 155 178 195 196 206 213 210 211 209 201 201 207 212 207 200 195 198 215 231 238 251 257 257 258 257 254 250 249 251 252 254 259 265 270 274 279 280 278 278 278 278 279 279 280 281 281 280 280 278 272 270 269 263 266 268 265 267 271 272 273 275 278 285 290 296 301 299 294 279 236 225 253 271 323 331 327 333 343 342
186 67 1 344 355 4 49 249 260 300 70 143 263 305 85 107 72 52 128 165 178 185 206 215 209 209 207 196 194 201 205 199 195 188 184 204 224 232 248 259 269 275 270 264 257 254 257 258 258 260 263 267 272 274 275 276 275 276 277 278 280 282 282 281 280 279 276 272 272 272 269 271 272 267 265 268 273 274 271 272 281 289 297 299 289 275 245 211 285 321 337 328 315 320 333 347 350
49 44 343 331 347 333 346 315 304 358 29 158 170 311 326 90 73 65 96 122 131 165 197 204 209 206 194 183 179 181 182 179 177 170 164 178 198 210 230 238 245 264 274 277 268 260 260 261 259 260 264 268 272 273 275 278 279 281 283 284 285 284 282 280 278 278 278 278 281 280 277 278 275 268 264 266 268 264 260 266 279 289 293 287 259 217 197 313 352 347 335 320 319 332 344 345 345
49 40 330 330 334 322 321 306 315 342 286 174 93 327 288 78 84 103 117 99 93 84 91 165 198 194 176 163 154 149 150 148 141 133 136 145 155 176 205 213 224 253 270 273 261 245 245 259 266 268 274 278 280 284 287 290 291 292 292 291 290 287 283 282 283 285 285 284 285 282 278 273 265 261 260 256 251 248 259 270 280 292 279 214 186 190 195 16 13 0 344 351 352 347 346 339 337
51 3 277 267 249 250 281 295 312 300 283 37 40 329 291 76 84 96 82 66 71 71 71 84 150 163 153 145 137 133 126 119 115 108 112 119 121 128 153 173 197 221 223 231 243 235 246 264 277 279 279 282 290 296 296 297 297 297 296 294 293 291 288 289 293 298 297 293 285 274 270 266 253 244 241 238 241 252 266 272 269 92 123 143 142 94 56 44 29 27 19 6 0 353 345 336 333
287 250 239 222 214 221 258 289 295 268 225 35 19 331 278 60 74 47 30 43 39 52 76 83 113 135 136 134 131 126 117 111 111 107 106 109 109 106 110 126 134 131 132 143 348 1 317 268 273 289 292 288 292 294 297 301 301 304 306 301 296 293 289 290 301 318 331 341 327 293 290 292 271 217 220 229 242 249 239 121 113 102 110 126 91 69 63 60 46 29 27 5 351 350 344 336 334
241 248 247 240 213 207 229 200 246 256 105 39 32 75 258 9 75 74 68 66 50 52 68 84 110 125 127 129 123 117 113 111 109 106 105 102 101 99 98 106 108 108 111 103 79 51 31 27 331 330 312 297 298 300 309 319 318 321 325 319 313 311 305 295 308 348 29 46 48 53 51 56 76 92 136 179 159 132 117 112 115 109 114 127 100 93 101 94 67 28 19 4 347 345 344 339 336
229 237 239 256 240 217 230 192 229 271 82 55 44 194 233 63 64 67 78 72 67 75 72 82 106 121 124 126 122 118 116 112 107 104 106 106 104 102 99 98 99 102 108 104 92 76 49 45 36 5 310 314 344 352 350 353 352 359 3 7 14 15 18 33 63 73 76 74 74 79 76 78 87 89 95 109 116 117 115 114 119 118 113 106 96 95 91 67 48 20 8 1 348 341 339 338 337
218 242 235 249 260 238 225 192 222 256 97 84 62 248 214 93 80 64 80 80 77 90 94 92 106 119 123 125 125 122 118 112 109 107 107 109 107 107 108 105 104 103 97 87 79 67 50 53 60 53 10 22 47 47 48 51 40 45 55 63 62 61 61 69 79 84 85 83 82 86 84 82 89 94 97 105 111 115 119 118 112 109 98 83 71 53 35 19 16 4 348 347 342 333 334 340 341
198 311 276 254 271 278 269 229 235 214 129 123 161 240 344 66 108 96 92 98 97 103 105 104 111 118 123 126 125 122 117 112 111 108 106 108 107 106 110 110 108 102 91 82 77 66 62 70 77 77 74 72 71 66 68 66 59 62 68 71 72 71 71 74 79 81 82 84 85 86 87 85 89 94 100 105 104 105 111 106 100 95 74 66 44 21 21 2 355 353 344 350 351 342 343 346 342
138 258 258 259 321 312 311 347 0 323 232 143 157 172 42 66 111 115 113 112 109 113 117 118 120 123 126 126 124 122 117 113 111 108 106 105 105 106 112 115 110 99 96 99 94 86 87 88 88 90 88 81 72 68 74 72 69 72 74 75 77 79 81 83 84 84 85 88 89 87 87 90 93 94 97 99 98 100 102 96 96 80 49 38 4 357 355 343 351 0 352 0 10 357 351 347 343
141 217 226 66 27 318 291 238 171 278 260 142 193 175 111 112 118 126 132 124 122 130 129 124 124 128 130 125 124 122 117 115 112 110 109 106 105 111 120 118 109 101 99 99 97 98 101 96 92 92 84 78 72 65 69 72 76 82 83 84 87 89 90 89 88 88 88 89 90 89 89 91 93 94 96 99 98 97 91 91 99 75 31 9 1 5 347 343 1 13 351 356 3 351 345 345 343
270 247 117 90 45 282 278 269 214 236 248 145 166 293 104 118 113 129 137 133 139 143 134 129 131 136 131 124 123 120 118 116 112 113 114 111 112 120 122 114 109 108 104 98 97 101 104 102 99 92 81 79 78 73 73 76 81 86 85 88 92 94 94 93 91 91 90 87 87 89 88 87 88 91 94 96 97 88 75 83 104 52 343 337 353 5 339 348 15 25 10 5 353 347 343 342 341
294 348 88 222 243 213 219 257 256 236 241 166 137 95 37 53 91 128 140 160 159 146 141 140 140 140 132 128 129 125 122 121 119 123 122 118 124 127 121 115 111 111 108 107 107 104 105 109 104 95 88 85 84 84 85 87 92 96 93 90 91 93 94 94 93 94 93 89 88 87 85 84 83 81 82 84 93 94 75 76 58 353 359 2 6 346 326 340 12 28 26 4 344 343 345 343 341
249 228 178 241 279 290 240 255 279 275 263 205 140 127 99 53 43 102 126 151 165 147 146 144 137 138 136 135 136 130 129 130 130 134 130 125 130 128 123 123 119 116 114 115 116 115 117 115 104 97 95 93 92 93 98 100 103 103 96 89 90 95 96 95 95 95 95 95 93 88 82 80 76 69 69 72 75 66 34 57 54 49 83 89 70 31 347 347 0 9 13 356 339 338 343 347 346
188 204 192 199 205 258 271 246 269 285 281 246 203 161 100 77 21 56 103 131 152 142 141 136 132 136 135 134 134 131 132 136 136 137 133 130 133 131 129 127 122 120 119 120 122 124 127 115 101 98 98 100 101 104 110 110 109 106 100 97 102 103 102 100 97 95 95 95 91 86 80 77 73 66 62 53 39 17 4 29 49 83 118 305 323 17 23 11 13 14 12 5 350 343 346 351 352
208 209 198 199 193 204 227 212 200 254 276 284 249 182 97 84 23 44 94 123 140 131 131 132 130 133 132 131 132 133 137 140 139 138 136 135 137 136 134 128 125 125 124 126 128 126 126 116 108 105 101 105 108 114 121 118 114 113 111 113 115 111 109 105 97 90 89 89 87 85 80 73 62 48 46 43 36 22 2 8 14 12 357 330 347 22 37 19 15 17 14 3 352 349 351 355 360